Lapse_Rate
7.5 7.5 7.6 7.5 7.5 7.7 7.5 7.0 6.8 6.8 6.9 6.8 6.7 6.6 6.5 6.3 6.1 5.9 5.7 5.6 5.5 5.5 5.6 5.7 5.6 5.4 5.1 5.2 5.3 5.2 5.3 5.3 5.2 5.3 5.6 5.2 5.1 5.3 5.2 5.3 5.1 5.0 5.0
7.4 7.6 7.6 7.6 7.7 7.7 7.8 7.4 7.0 7.1 7.1 6.9 6.8 6.7 6.7 6.5 6.2 6.0 5.7 5.7 5.6 5.4 5.0 4.8 5.1 5.6 5.5 5.5 5.3 5.4 5.4 5.1 5.2 5.4 5.3 5.3 4.8 4.9 4.9 5.3 5.1 4.9 5.1
7.2 7.9 7.4 7.4 7.6 7.7 7.9 7.7 7.2 7.3 7.4 7.5 7.6 7.2 7.2 7.1 6.7 6.5 6.3 6.0 5.8 5.6 5.5 5.2 5.1 5.0 5.0 5.3 5.6 5.5 5.3 5.3 5.4 5.2 5.0 5.1 5.2 4.9 5.1 5.1 5.2 4.9 5.1
7.5 7.6 7.3 7.0 7.0 7.2 7.7 7.6 7.7 7.7 7.8 7.7 7.7 7.7 7.6 7.5 7.3 6.8 6.5 6.1 5.7 5.6 5.8 5.3 5.2 5.4 5.4 5.2 5.0 5.3 5.5 5.4 5.3 5.3 5.3 5.5 5.4 5.2 5.4 5.4 5.2 4.9 4.8
7.5 7.4 7.7 7.7 7.1 7.6 7.7 7.4 7.7 7.9 7.7 7.3 7.3 7.1 7.0 7.2 7.3 7.3 7.3 6.9 6.5 6.3 6.0 5.5 5.1 5.0 5.1 5.4 5.2 5.0 5.0 5.1 5.3 5.4 5.6 5.7 5.7 5.7 5.8 5.7 5.1 5.4 4.7
6.7 6.7 7.3 7.4 7.2 7.6 8.3 8.1 7.2 7.3 7.6 7.3 7.1 7.3 7.3 7.2 7.0 6.9 6.9 6.8 7.0 6.6 6.2 6.0 5.6 5.2 4.8 4.7 4.7 4.9 5.1 5.2 5.1 5.3 5.5 5.7 5.8 5.8 5.7 5.6 5.2 5.3 4.9
6.0 6.3 6.4 7.4 7.2 7.1 7.3 7.8 7.3 6.8 7.0 7.1 6.9 6.8 7.0 6.8 6.5 6.3 6.1 6.0 6.5 6.9 6.9 6.4 5.9 5.3 5.1 5.1 4.7 4.7 4.8 5.0 5.1 5.2 5.4 5.7 5.9 5.7 5.6 5.4 5.3 5.1 5.2
6.7 6.4 6.5 6.5 6.6 6.7 6.6 7.0 7.2 7.1 6.6 6.7 6.7 6.6 6.4 6.0 6.1 5.9 5.6 5.6 5.8 6.0 6.3 6.6 6.6 6.1 5.2 5.3 5.2 4.9 4.8 4.9 5.0 5.1 5.3 5.5 5.7 5.8 5.8 5.8 5.7 5.3 5.1
6.6 6.6 6.1 6.3 6.3 6.2 6.2 6.2 6.5 6.8 6.6 6.6 7.1 6.8 6.2 6.2 6.0 5.7 5.5 5.4 5.6 5.8 5.6 6.2 6.3 6.4 5.9 5.5 5.3 5.1 4.9 4.9 4.9 5.0 5.0 5.3 5.5 5.8 5.7 6.0 5.7 5.7 5.4
6.5 6.3 6.4 6.4 6.3 6.1 6.7 6.8 6.5 6.8 6.7 6.5 6.6 6.6 6.3 6.4 6.4 6.1 5.8 6.0 5.6 6.0 6.0 5.9 6.2 6.3 6.3 5.6 5.4 5.0 5.0 5.0 5.0 4.9 5.0 5.1 5.3 5.5 5.7 5.7 5.7 5.6 5.7
6.9 6.7 6.6 6.5 6.6 6.8 7.0 7.0 7.1 7.2 6.9 7.0 6.7 6.7 6.5 6.5 6.3 6.1 6.0 5.8 6.1 6.0 5.9 6.0 6.2 6.4 6.5 6.0 5.5 5.4 5.2 5.2 5.0 4.9 5.0 5.2 5.4 5.3 5.5 5.5 5.6 5.5 5.3
7.1 7.2 7.3 7.2 7.2 7.1 6.9 6.9 6.8 6.7 6.7 6.8 6.7 6.5 6.3 6.4 6.4 6.4 6.0 5.7 5.7 5.7 5.5 5.6 5.8 6.2 6.3 6.2 5.5 5.2 5.1 5.2 5.1 5.0 4.9 5.1 5.3 5.2 5.1 5.0 5.3 5.4 5.4
7.3 7.4 7.5 7.4 7.1 6.8 7.0 7.0 7.0 6.8 6.6 6.3 6.2 6.2 6.2 6.4 6.4 6.4 6.2 5.7 5.7 5.4 5.3 5.4 5.6 6.2 6.2 6.1 5.8 5.4 5.5 5.5 5.4 5.1 4.8 4.9 5.3 5.4 5.1 5.0 5.1 5.1 5.2
7.3 7.3 7.2 7.1 7.0 6.9 6.7 6.5 6.1 6.1 6.3 6.1 6.0 6.0 6.0 6.2 6.4 6.3 6.1 5.8 5.5 5.4 5.3 5.6 5.7 6.1 6.0 6.1 5.7 5.3 5.5 5.5 5.5 5.3 5.4 5.5 5.4 5.4 5.5 5.3 5.2 5.1 5.2
6.7 6.6 6.5 6.5 6.4 6.2 6.2 6.3 6.1 5.9 5.9 5.8 5.7 5.9 5.9 6.0 6.1 6.2 5.7 4.9 4.9 4.9 5.1 5.4 5.5 5.6 5.9 5.9 5.7 5.4 5.5 5.7 5.5 5.4 5.4 5.5 5.4 5.2 5.3 5.4 5.2 5.2 5.1
5.8 5.6 5.3 5.3 5.5 5.9 6.0 5.9 5.6 5.1 5.0 5.0 4.8 5.0 5.3 5.5 6.0 6.0 5.8 5.1 4.5 5.1 5.0 5.2 5.3 5.4 5.6 5.7 5.7 5.4 5.1 5.3 5.5 5.3 5.2 5.3 5.3 5.4 5.4 5.4 5.5 5.5 5.2
5.4 5.4 5.4 5.3 5.3 5.4 5.6 5.2 4.6 4.5 4.3 4.7 4.6 4.9 5.2 5.5 5.6 5.4 5.4 5.2 5.4 4.9 4.9 4.6 4.9 5.0 5.1 5.4 5.6 5.4 5.3 5.7 5.1 4.9 4.9 5.4 5.5 5.6 5.4 5.5 5.4 5.5 5.5
5.5 5.5 5.6 5.6 5.5 5.3 5.4 5.3 4.9 4.8 4.9 4.9 4.9 4.9 5.1 5.2 5.4 5.3 5.2 5.0 5.0 5.0 4.5 4.7 4.7 4.8 4.9 5.5 5.3 5.4 5.4 5.6 5.5 5.6 5.6 5.5 5.5 5.4 5.5 5.5 5.1 5.6 5.6
5.4 5.4 5.4 5.6 5.7 5.4 5.3 5.5 5.0 5.1 5.4 5.6 5.4 5.2 5.4 5.5 5.5 5.4 5.4 5.1 5.2 4.7 4.5 4.5 4.4 4.8 4.8 5.1 5.0 5.3 5.5 5.7 5.8 5.9 5.8 5.6 5.5 5.6 5.5 5.4 5.2 5.4 5.5
5.9 5.7 5.7 5.7 5.4 5.5 5.4 5.1 5.0 5.0 5.3 5.6 5.8 5.9 5.6 5.7 5.5 5.5 5.6 5.2 5.4 5.0 4.8 4.8 4.5 4.3 4.6 5.0 5.1 5.4 5.3 5.5 5.6 5.6 5.5 5.4 5.3 5.3 5.4 5.5 5.7 5.8 5.9
6.4 6.4 6.4 6.2 5.8 5.3 5.3 5.1 5.2 4.9 5.3 5.4 5.0 5.1 5.3 5.3 5.4 5.4 5.1 4.9 5.3 4.3 4.0 3.9 3.7 4.0 4.5 4.7 4.9 5.2 5.3 5.4 5.4 5.5 5.5 5.4 5.4 5.5 5.8 5.7 5.7 5.6 5.6
6.6 6.6 6.7 6.6 6.4 5.9 5.4 5.4 5.3 5.2 5.4 5.4 5.3 5.1 5.2 5.3 5.3 4.9 4.8 4.9 4.3 4.1 4.1 4.2 4.2 4.3 4.6 4.4 4.3 5.0 5.3 5.4 5.4 5.5 5.5 5.4 5.8 5.8 5.7 5.6 5.7 5.7 5.8
6.6 6.6 6.5 6.4 6.2 6.0 5.7 5.6 5.7 5.4 5.5 5.6 5.4 5.2 5.2 5.1 5.0 5.0 4.9 4.7 4.7 4.2 4.6 4.8 4.6 4.7 4.6 4.7 5.2 5.5 5.4 5.4 5.6 5.8 5.8 5.8 5.8 5.8 5.7 5.7 5.8 5.8 5.7
6.5 6.3 6.3 6.2 6.2 6.0 6.0 5.9 6.1 6.0 5.7 5.7 5.4 5.3 5.2 5.3 5.2 5.0 5.1 5.1 5.2 5.1 5.0 5.1 5.0 5.3 5.1 5.4 5.6 5.8 5.9 5.8 5.7 5.6 5.6 5.6 5.6 5.7 5.7 5.6 5.5 5.3 5.2
6.2 6.0 6.1 5.8 5.6 5.9 5.8 5.8 5.6 5.7 5.7 5.6 5.5 5.5 5.4 5.4 5.1 5.3 5.6 5.4 5.3 5.5 5.5 5.3 5.3 5.3 5.6 6.0 6.3 6.2 6.0 5.9 5.8 5.8 5.7 5.6 5.5 5.5 5.4 5.2 5.1 5.1 5.1
6.4 5.9 5.5 5.4 5.6 5.8 5.6 5.5 5.6 5.4 5.3 5.4 5.4 5.3 5.7 6.0 6.1 5.8 5.7 5.5 5.6 5.8 6.0 5.8 5.7 5.9 5.9 5.9 5.9 5.8 5.9 5.7 5.6 5.6 5.5 5.4 5.3 5.2 5.0 5.1 5.3 5.5 5.6
Wind_Speed
16 14 13 11 12 10 9 10 10 9 10 11 10 11 11 10 9 8 7 7 8 8 8 9 10 9 7 6 7 5 6 5 5 3 2 6 6 5 5 6 5 5 5
14 14 14 13 13 12 11 11 11 11 11 11 10 10 10 10 10 11 10 9 10 9 9 9 10 7 9 8 7 8 8 8 7 7 4 4 4 5 4 5 4 4 6
11 11 12 13 13 12 12 11 11 11 11 12 12 12 12 12 12 11 10 9 8 8 7 8 9 9 10 7 7 5 6 6 8 4 4 3 2 2 3 3 2 4 7
14 11 8 10 11 10 10 11 13 13 14 14 13 14 13 12 11 10 10 9 9 7 7 7 8 8 9 7 6 6 5 5 6 6 4 4 2 4 4 4 2 1 3
12 11 10 10 7 8 8 11 11 12 12 12 13 12 10 9 8 10 10 9 8 8 7 7 7 7 7 4 5 6 6 6 5 5 3 2 3 3 6 4 2 2 1
6 9 10 14 12 8 2 5 11 13 12 12 13 12 11 9 8 9 9 9 9 9 8 7 7 7 8 7 5 5 5 7 7 6 5 5 6 5 4 7 5 4 3
4 7 10 9 9 10 7 3 10 16 14 15 15 14 14 14 10 12 12 10 10 10 9 8 7 5 5 6 6 6 6 4 2 5 6 6 6 7 7 7 6 6 4
6 6 5 6 5 0 7 7 16 15 16 14 14 14 13 12 10 12 12 12 11 11 10 11 10 9 9 8 6 6 6 7 6 4 3 3 5 8 10 7 7 4 4
4 2 2 4 5 4 11 12 15 13 13 11 8 10 12 12 9 11 10 11 12 12 10 10 10 9 9 9 8 7 7 6 4 2 3 5 4 5 9 7 6 6 2
4 2 1 3 4 10 11 11 11 11 11 7 9 7 8 10 8 10 11 11 12 10 9 10 8 9 13 11 9 8 8 8 7 7 6 6 6 7 14 8 8 7 4
5 6 5 4 3 1 4 4 3 4 6 8 9 8 11 11 11 12 14 12 11 10 9 9 8 12 13 11 8 7 6 6 5 7 5 5 5 6 6 7 6 5 5
6 5 6 5 2 1 4 5 5 6 7 7 7 8 10 12 13 13 15 18 13 11 12 8 8 12 13 11 7 6 7 6 5 5 5 4 5 4 4 5 7 8 5
9 8 8 7 5 4 4 5 5 7 7 7 8 9 10 9 10 15 16 18 14 12 10 9 11 11 12 8 6 10 9 6 6 6 5 5 3 3 4 4 4 4 3
7 7 6 7 8 6 4 4 5 5 4 5 6 7 9 9 9 5 6 8 10 6 9 9 10 9 7 8 8 8 6 6 6 6 5 4 4 5 5 5 3 3 3
8 8 7 5 6 6 5 3 4 5 4 6 6 7 8 7 5 7 9 9 10 9 10 10 9 9 9 9 8 8 6 6 6 5 4 4 5 4 3 4 3 4 4
9 8 8 7 6 6 6 4 5 7 5 7 7 8 8 8 8 12 11 13 15 17 7 9 9 9 10 9 8 8 6 5 5 4 4 3 4 4 4 4 2 2 4
8 7 5 5 6 6 7 5 5 1 2 2 7 8 7 12 10 12 14 15 20 11 7 8 6 8 8 7 6 7 5 4 5 4 4 4 4 3 5 5 4 3 3
10 5 7 7 6 6 5 5 4 4 4 3 3 5 9 6 10 13 13 11 8 7 8 8 7 6 6 6 6 6 7 6 6 5 5 5 4 6 6 6 5 6 6
9 7 8 8 6 6 6 5 6 4 3 3 2 3 5 12 12 6 6 6 9 8 8 8 7 7 6 6 6 7 8 7 7 6 6 6 6 5 5 5 6 5 6
9 8 7 7 7 6 5 3 3 3 3 4 5 4 2 3 6 6 3 5 3 7 7 8 7 7 8 8 7 8 8 8 8 7 7 6 5 5 6 6 5 5 5
7 6 6 6 5 5 3 1 1 0 3 4 4 5 10 6 5 6 6 9 7 7 7 7 8 7 8 8 8 8 8 7 7 7 7 6 5 5 7 6 6 6 6
8 7 6 6 6 5 2 1 3 3 2 3 2 3 7 7 5 6 6 6 7 8 7 7 6 6 6 7 7 8 8 8 7 7 7 7 7 6 6 6 6 5 5
6 6 5 5 5 6 2 3 2 3 3 3 3 4 5 5 5 6 7 7 6 7 7 7 7 6 6 6 9 7 7 8 7 7 8 8 7 6 6 6 5 5 4
6 6 5 5 5 5 4 4 2 4 6 4 5 5 5 5 5 7 8 7 7 8 7 6 7 9 9 8 10 10 10 9 8 8 8 6 7 5 5 5 5 5 4
5 5 5 5 5 5 5 5 5 5 6 5 5 6 6 7 7 8 8 8 10 10 10 9 9 11 11 12 12 11 11 11 8 8 7 6 6 7 5 4 4 4 3
4 4 4 3 3 3 4 4 4 3 4 5 5 5 7 5 6 5 6 9 9 10 11 8 11 14 13 11 11 13 13 12 9 6 8 7 6 5 5 5 4 3 3
Wind_Direction
175 179 188 194 201 200 205 226 219 210 205 211 209 205 202 195 189 195 207 206 218 228 225 224 223 220 220 206 214 216 221 205 232 195 176 186 185 181 167 153 149 130 116
174 177 186 192 196 193 204 217 222 217 212 216 215 211 204 205 200 197 199 202 214 219 227 232 235 223 225 229 227 224 220 211 221 214 182 188 200 185 157 129 114 115 107
167 175 191 191 194 198 210 219 227 231 226 218 214 218 211 205 207 208 207 206 213 219 224 221 240 217 225 217 219 224 222 216 209 205 210 177 168 143 120 103 114 114 118
153 178 177 198 197 204 202 222 226 231 232 225 223 219 217 214 215 216 203 206 208 220 232 242 254 237 237 217 207 218 204 214 214 211 200 194 177 158 150 143 152 155 129
133 166 154 148 187 204 211 225 238 243 248 247 239 234 230 226 220 214 209 211 220 221 225 237 239 256 270 254 238 201 193 210 215 208 191 161 162 156 174 146 135 114 101
130 153 147 122 125 133 169 292 260 246 237 242 243 243 238 237 209 197 213 213 209 216 218 226 243 216 229 209 223 256 224 206 215 208 190 207 194 175 148 162 146 157 163
210 194 205 178 158 167 138 36 273 263 237 234 241 237 233 233 203 200 202 218 219 210 212 211 224 231 234 217 186 217 220 212 277 226 210 214 183 176 167 167 159 167 159
199 239 216 149 137 304 83 303 264 260 249 233 238 241 242 236 200 200 198 222 230 226 212 205 211 217 198 220 210 198 196 192 199 213 226 216 214 186 177 177 170 127 76
155 154 290 305 143 200 221 213 251 256 253 235 234 242 239 244 211 213 196 229 226 229 220 211 207 207 168 199 202 189 193 190 153 196 101 106 142 169 155 136 148 153 144
21 6 353 348 325 242 259 263 246 239 252 263 253 247 248 243 217 214 210 236 229 216 213 211 210 205 152 185 204 192 191 190 181 170 156 132 157 165 167 189 167 174 160
348 356 1 357 354 257 213 215 212 232 255 258 261 258 252 240 238 209 209 226 223 211 204 212 206 180 161 180 218 195 200 167 165 190 178 166 175 175 182 189 188 206 202
353 333 348 350 349 166 210 213 211 228 241 248 257 263 263 259 237 225 203 212 212 208 206 200 190 170 154 157 185 117 136 188 178 182 176 180 169 197 178 189 182 186 188
15 2 347 340 337 301 266 255 254 251 256 263 262 267 268 262 255 214 207 208 213 207 194 190 149 143 140 141 161 144 167 209 186 190 202 184 184 120 155 170 173 181 205
33 13 355 349 339 301 275 268 266 265 261 259 258 259 268 265 256 229 193 193 185 185 141 146 139 139 138 126 142 160 187 191 198 201 191 178 159 176 184 164 163 171 191
19 16 1 360 343 324 308 271 253 256 254 264 256 260 273 276 246 184 174 180 173 170 144 143 155 161 165 168 170 179 180 178 190 175 170 172 185 190 189 176 175 159 243
358 359 352 341 343 335 321 312 215 246 219 222 267 252 274 276 212 182 180 161 150 146 139 146 163 173 176 176 168 174 174 190 174 173 176 166 170 159 155 157 152 233 173
344 339 332 321 337 336 328 303 303 142 235 63 3 316 263 269 186 162 157 144 143 138 150 141 158 167 165 165 162 170 162 170 148 146 141 143 136 131 168 150 133 123 112
332 314 319 323 332 335 330 336 342 349 336 320 323 343 317 246 186 167 153 136 159 160 156 154 163 151 145 156 143 137 133 129 125 118 115 110 114 124 130 125 124 132 123
328 324 326 320 328 315 343 353 354 359 332 1 19 15 57 92 82 101 165 165 167 159 150 148 137 140 142 126 125 130 130 119 126 128 134 139 139 137 129 131 113 111 136
321 314 298 313 326 323 339 354 20 32 44 40 55 50 25 101 112 118 92 75 43 115 121 115 116 120 121 121 124 127 129 140 142 137 131 123 121 124 127 131 126 120 104
321 316 309 305 320 328 340 22 350 292 43 37 48 33 41 71 63 81 86 91 77 77 84 101 104 114 119 122 125 129 134 138 135 132 128 126 131 129 126 125 122 136 138
324 325 327 325 324 331 269 167 179 189 183 133 75 54 84 87 74 75 66 69 104 96 98 96 84 92 120 128 131 136 136 134 133 126 123 126 117 114 118 118 117 115 120
330 329 337 343 335 348 313 209 125 157 132 120 99 85 86 88 86 90 92 94 98 106 100 101 106 108 110 114 120 135 140 134 132 134 133 131 132 129 129 131 128 130 130
354 350 4 18 24 40 27 16 27 120 116 97 91 91 75 72 85 101 101 97 93 93 93 106 114 122 118 112 111 117 119 120 127 129 137 138 131 152 139 136 138 129 144
352 14 18 28 28 37 60 54 49 84 98 101 112 107 112 117 103 107 108 122 125 119 118 118 118 119 118 119 117 114 120 121 129 132 140 145 146 157 156 158 153 148 148
357 17 43 41 40 29 49 96 104 97 107 121 120 120 113 104 110 105 117 121 122 120 122 121 122 118 115 114 121 127 128 128 137 140 144 142 142 144 148 140 149 148 142